Regional Weather Roundup
Issued by NWS Newport/Morehead, NC

Current Version | Previous Version | Text Only | Print | Product List | Glossary Off
Versions: 1 2 3 4 5 6 7 8 9 10 11 12 13 14 15 16 17 18 19 20 21 22 23 24 25 26 27 28 29 30 31 32 33 34 35 36 37 38 39 40 41 42 43 44 45 46 47 48 49 50
148 ASUS42 KMHX 120425 RWRMHX WEATHER ROUNDUP FOR EASTERN NORTH CAROLINA NATIONAL WEATHER SERVICE NEWPORT/MOREHEAD CITY NC 1100 PM EST MON DEC 11 2017 NOTE: "FAIR" INDICATES FEW OR NO CLOUDS BELOW 12,000 FEET WITH NO SIGNIFICANT WEATHER AND/OR OBSTRUCTIONS TO VISIBILITY NCZ015>017-031-032-045>047-102-103-120500- NORTH COAST CITY SKY/WX TMP DP RH WIND PRES REMARKS EDENTON CLEAR 43 38 83 S7 29.99F ELIZABETH CITY CLEAR 42 38 85 S6 29.98F KITTY HAWK CLEAR 41 34 75 CALM 29.98F MANTEO CLEAR 42 35 75 S6 29.99F $$ NCZ045>047-081-094-103-104-120500- CENTRAL COAST CITY SKY/WX TMP DP RH WIND PRES REMARKS FRISCO CLEAR 35 34 96 E3 30.00F $$ NCZ095-097-098-100-101-120500- SOUTHERN COAST CITY SKY/WX TMP DP RH WIND PRES REMARKS BEAUFORT CLEAR 35 34 96 CALM 29.99F CEDAR ISLAND NOT AVBL JACKSONVILLE CLEAR 39 34 82 SW5 30.00F PINEY ISLAND N/A N/A N/A N/A S5 29.99F WILMINGTON CLEAR 34 32 92 CALM 30.01F $$ NCZ011>013-027>030-043-044-078>080-089-090>093-098-120500- COASTAL PLAIN CITY SKY/WX TMP DP RH WIND PRES REMARKS AHOSKIE CLEAR 35 31 86 S5 29.96F CLINTON CLEAR 38 33 80 CALM 29.99F ELIZABETHTOWN NOT AVBL GOLDSBORO CLEAR 40 27 61 CALM 29.97F GREENVILLE CLEAR 37 30 75 CALM 30.00S HAVELOCK CLEAR 32 32 100 CALM 30.00F KENANSVILLE CLEAR 37 32 81 CALM 29.99S KINSTON CLEAR 37 32 82 CALM 29.99F NEW BERN CLEAR 33 32 96 CALM 30.00F RICHLANDS CLEAR 32 30 92 S5 30.00F ROCKY MOUNT CLEAR 36 33 89 S3 29.97F WASHINGTON CLEAR 35 31 87 CALM 29.98F WHITEVILLE CLEAR 40 36 86 CALM 29.99F $$ AMZ130-135-150-152-154-156-158-170-250-252-270-ANZ085-086-088-633-658-670-120500- MARINE OBSERVATIONS STATION/POSITION TIME TEMP WIND PRES WAVE SWELL AIR SEA DIR/SP/G HT/PER HT/PER (UTC) (F) (DEG/KT/KT) (MB) (FT/S) (FT/S) CHESAPEAKE LIGHT NOT AVBL 64 E VA BEACH 0350 51 58 210/ 12/ 16 1015.8 2/ 8 2/ 8 DUCK 0400 46 55 170/ 11/ 12 1014.8 2 E DUCK 0400 53 N/A 2/ 9 OREGON INLET 0400 45 46 140/ 4/ 6 1015.4 13E OREGON INLT 0348 56 N/A 2/ 8 2/ 8 HATTERAS CG 0400 47 54 340/ 2/ 2 1015.4 DIAMOND BUOY 0410 60 75 230/ 12/ 19 1015.6 CAPE LOOKOUT 0400 160/ 2/ 2 1015.5 BEAUFORT LAB 0400 42 51 CALM / 1 1015.4 30 SE NEW RVR IN 0408 55 68 260/ 10/ 12 1015.7 30 SE NEW RVR IN 0400 68 N/A 3/ 6 27 SE WRIGHTSVLE 0408 54 66 260/ 12/ 16 1016.2 5 SE WRIGHTSVLE 0408 52 58 250/ 10/ 12 1016.1 225 S CAPE HAT 0350 67 76 250/ 14/ 17 1017.7 4/ 8 2/ 8 41 SE CHARLESTON 0410 73 250/ 17/ 21 1016.3 $$

USA.gov is the U.S. government's official web portal to all federal, state and local government web resources and services.